Time,TemperatureF,DewpointF,PressureIn,WindDirection,WindDirectionDegrees,WindSpeedMPH,WindSpeedGustMPH,Humidity,HourlyPrecipIn,Conditions,Clouds,dailyrainin,SoftwareType,DateUTC
2013-07-22 00:01:00,66.0,65.0,30.04,East,101,0.0,0.0,96,0.00,,,0.13,,2013-07-22 04:01:00,
2013-07-22 00:12:00,66.0,65.0,30.04,East,101,0.0,0.0,96,0.00,,,0.13,,2013-07-22 04:12:00,
2013-07-22 00:22:00,66.0,65.0,30.04,East,101,0.0,0.0,96,0.00,,,0.06,,2013-07-22 04:22:00,
2013-07-22 00:33:00,66.0,65.0,30.04,East,101,0.0,0.0,96,0.00,,,0.06,,2013-07-22 04:33:00,
2013-07-22 00:43:00,66.0,65.0,30.04,East,101,0.0,0.0,96,0.00,,,0.06,,2013-07-22 04:43:00,
2013-07-22 01:02:00,66.0,65.0,30.03,East,101,0.0,0.0,96,0.00,,,0.06,,2013-07-22 05:02:00,
2013-07-22 01:11:00,66.0,65.0,30.03,East,101,0.0,0.0,96,0.00,,,0.06,,2013-07-22 05:11:00,
2013-07-22 01:22:00,66.0,65.0,30.03,East,101,0.0,0.0,96,0.00,,,0.06,,2013-07-22 05:22:00,
2013-07-22 01:32:00,66.0,65.0,30.03,East,101,0.0,0.0,96,0.00,,,0.06,,2013-07-22 05:32:00,
2013-07-22 01:43:00,66.0,65.0,30.03,East,101,0.0,0.0,96,0.00,,,0.06,,2013-07-22 05:43:00,
2013-07-22 01:52:00,66.0,65.0,30.02,East,101,0.0,0.0,96,0.00,,,0.06,,2013-07-22 05:52:00,
2013-07-22 02:01:00,65.0,64.0,30.02,East,101,0.0,0.0,96,0.00,,,0.06,,2013-07-22 06:01:00,
2013-07-22 02:11:00,65.0,64.0,30.02,East,101,0.0,0.0,96,0.00,,,0.06,,2013-07-22 06:11:00,
2013-07-22 02:22:00,65.0,64.0,30.01,East,101,0.0,0.0,96,0.00,,,0.06,,2013-07-22 06:22:00,
2013-07-22 02:33:00,65.0,64.0,30.00,East,101,0.0,0.0,96,0.00,,,0.06,,2013-07-22 06:33:00,
2013-07-22 02:43:00,65.0,64.0,30.00,East,101,0.0,0.0,96,0.00,,,0.06,,2013-07-22 06:43:00,
2013-07-22 02:52:00,65.0,64.0,29.99,East,101,0.0,0.0,96,0.00,,,0.06,,2013-07-22 06:52:00,
2013-07-22 03:01:00,65.0,64.0,30.00,East,101,0.0,0.0,97,0.00,,,0.06,,2013-07-22 07:01:00,
2013-07-22 03:12:00,65.0,64.0,30.00,East,101,0.0,0.0,97,0.00,,,0.06,,2013-07-22 07:12:00,
2013-07-22 03:22:00,65.0,64.0,29.99,East,101,0.0,0.0,97,0.00,,,0.06,,2013-07-22 07:22:00,
2013-07-22 03:33:00,65.0,64.0,29.98,East,101,0.0,0.0,97,0.00,,,0.06,,2013-07-22 07:33:00,
2013-07-22 03:43:00,65.0,64.0,29.98,East,101,0.0,0.0,97,0.00,,,0.06,,2013-07-22 07:43:00,
2013-07-22 03:52:00,64.0,63.0,29.98,East,101,0.0,0.0,96,0.00,,,0.06,,2013-07-22 07:52:00,
2013-07-22 04:02:00,64.0,63.0,29.98,East,101,0.0,0.0,96,0.00,,,0.06,,2013-07-22 08:02:00,
2013-07-22 04:11:00,64.0,63.0,29.98,East,101,0.0,0.0,97,0.00,,,0.06,,2013-07-22 08:11:00,
2013-07-22 04:22:00,64.0,63.0,29.98,East,101,0.0,0.0,97,0.00,,,0.06,,2013-07-22 08:22:00,
2013-07-22 04:32:00,64.0,63.0,29.98,East,101,0.0,0.0,97,0.00,,,0.06,,2013-07-22 08:32:00,
2013-07-22 04:43:00,64.0,63.0,29.98,East,101,0.0,0.0,97,0.00,,,0.06,,2013-07-22 08:43:00,
2013-07-22 04:52:00,64.0,63.0,29.98,East,101,0.0,0.0,97,0.00,,,0.06,,2013-07-22 08:52:00,
2013-07-22 05:02:00,64.0,63.0,29.98,East,101,0.0,0.0,97,0.00,,,0.06,,2013-07-22 09:02:00,
2013-07-22 05:11:00,64.0,63.0,29.98,East,101,0.0,0.0,97,0.00,,,0.06,,2013-07-22 09:11:00,
2013-07-22 05:22:00,64.0,63.0,29.98,East,101,0.0,0.0,97,0.00,,,0.05,,2013-07-22 09:22:00,
2013-07-22 05:33:00,64.0,63.0,29.98,East,101,0.0,0.0,97,0.00,,,0.05,,2013-07-22 09:33:00,
2013-07-22 05:42:00,64.0,63.0,29.98,East,101,0.0,0.0,97,0.00,,,0.05,,2013-07-22 09:42:00,
2013-07-22 05:52:00,64.0,63.0,29.99,East,101,0.0,0.0,97,0.00,,,0.05,,2013-07-22 09:52:00,
2013-07-22 06:02:00,64.0,63.0,29.99,East,101,0.0,0.0,97,0.00,,,0.05,,2013-07-22 10:02:00,
2013-07-22 06:11:00,64.0,63.0,29.98,ESE,107,0.0,0.0,97,0.00,,,0.05,,2013-07-22 10:11:00,
2013-07-22 06:22:00,64.0,63.0,29.99,ESE,107,0.0,0.0,97,0.00,,,0.05,,2013-07-22 10:22:00,
2013-07-22 06:32:00,64.0,63.0,29.99,ESE,107,0.0,0.0,97,0.00,,,0.05,,2013-07-22 10:32:00,
2013-07-22 06:43:00,64.0,63.0,29.98,ESE,121,0.0,0.0,97,0.00,,,0.05,,2013-07-22 10:43:00,
2013-07-22 06:52:00,64.0,63.0,29.98,ESE,121,0.0,0.0,97,0.00,,,0.05,,2013-07-22 10:52:00,
2013-07-22 07:02:00,64.0,63.0,29.98,ESE,121,0.0,0.0,97,0.00,,,0.05,,2013-07-22 11:02:00,
2013-07-22 07:11:00,64.0,63.0,29.99,ESE,121,0.0,0.0,97,0.00,,,0.05,,2013-07-22 11:11:00,
2013-07-22 07:23:00,64.0,63.0,29.99,ESE,121,0.0,0.0,97,0.00,,,0.05,,2013-07-22 11:23:00,
2013-07-22 07:32:00,64.0,63.0,29.99,ESE,121,0.0,0.0,97,0.00,,,0.05,,2013-07-22 11:32:00,
2013-07-22 07:43:00,64.0,63.0,29.99,ESE,121,0.0,0.0,97,0.00,,,0.05,,2013-07-22 11:43:00,
2013-07-22 07:52:00,64.0,63.0,30.00,ENE,77,0.0,0.0,97,0.00,,,0.05,,2013-07-22 11:52:00,
2013-07-22 08:02:00,64.0,63.0,30.00,ENE,77,0.0,0.0,97,0.00,,,0.05,,2013-07-22 12:02:00,
2013-07-22 08:11:00,65.0,64.0,30.01,ENE,77,0.0,1.0,97,0.00,,,0.05,,2013-07-22 12:11:00,
2013-07-22 08:22:00,65.0,64.0,30.01,ESE,123,0.0,0.0,97,0.00,,,0.05,,2013-07-22 12:22:00,
2013-07-22 08:33:00,65.0,64.0,30.01,ESE,123,0.0,0.0,97,0.00,,,0.05,,2013-07-22 12:33:00,
2013-07-22 08:43:00,65.0,64.0,30.02,SSE,166,0.0,4.0,97,0.00,,,0.05,,2013-07-22 12:43:00,
2013-07-22 08:53:00,65.0,64.0,30.02,SW,228,0.0,6.0,97,0.00,,,0.05,,2013-07-22 12:53:00,
2013-07-22 09:01:00,65.0,64.0,30.02,SW,228,0.0,6.0,97,0.00,,,0.05,,2013-07-22 13:01:00,
2013-07-22 09:11:00,65.0,64.0,30.02,SSE,160,0.0,3.0,97,0.00,,,0.05,,2013-07-22 13:11:00,
2013-07-22 09:22:00,65.0,64.0,30.02,SSE,160,0.0,3.0,97,0.00,,,0.05,,2013-07-22 13:22:00,
2013-07-22 09:43:00,66.0,65.0,30.02,SSE,160,0.0,1.0,97,0.00,,,0.05,,2013-07-22 13:43:00,
2013-07-22 09:53:00,66.0,65.0,30.02,SSE,160,0.0,1.0,97,0.00,,,0.05,,2013-07-22 13:53:00,
2013-07-22 10:02:00,67.0,66.0,30.02,South,191,2.0,7.0,97,0.00,,,0.05,,2013-07-22 14:02:00,
2013-07-22 10:11:00,67.0,66.0,30.03,NNW,333,0.0,5.0,97,0.00,,,0.05,,2013-07-22 14:11:00,
2013-07-22 10:32:00,68.0,67.0,30.02,SE,130,0.0,4.0,95,0.00,,,0.05,,2013-07-22 14:32:00,
2013-07-22 10:53:00,69.0,66.0,30.02,South,186,0.0,2.0,91,0.00,,,0.05,,2013-07-22 14:53:00,
2013-07-22 11:02:00,70.0,67.0,30.01,SW,229,0.0,1.0,90,0.00,,,0.05,,2013-07-22 15:02:00,
2013-07-22 11:11:00,71.0,67.0,30.01,NNW,341,0.0,4.0,88,0.00,,,0.05,,2013-07-22 15:11:00,
2013-07-22 11:33:00,72.0,69.0,30.02,SE,125,0.0,3.0,89,0.00,,,0.05,,2013-07-22 15:33:00,
2013-07-22 11:43:00,72.0,67.0,30.02,SE,137,0.0,9.0,84,0.00,,,0.05,,2013-07-22 15:43:00,
2013-07-22 11:52:00,72.0,67.0,30.02,SE,137,0.0,9.0,84,0.00,,,0.05,,2013-07-22 15:52:00,
2013-07-22 12:01:00,73.0,68.0,30.02,SSW,193,2.0,5.0,84,0.00,,,0.05,,2013-07-22 16:01:00,
2013-07-22 12:22:00,74.0,68.0,30.01,North,356,0.0,5.0,82,0.00,,,0.05,,2013-07-22 16:22:00,
2013-07-22 12:32:00,74.0,68.0,30.01,WSW,256,2.0,12.0,82,0.00,,,0.05,,2013-07-22 16:32:00,
2013-07-22 12:43:00,76.0,69.0,30.01,WNW,291,1.0,6.0,78,0.00,,,0.05,,2013-07-22 16:43:00,
2013-07-22 13:01:00,78.0,70.0,30.01,SSE,153,0.0,11.0,76,0.00,,,0.05,,2013-07-22 17:01:00,
2013-07-22 13:23:00,79.0,69.0,30.00,SSW,200,1.0,8.0,71,0.00,,,0.05,,2013-07-22 17:23:00,
2013-07-22 13:32:00,78.0,69.0,29.99,South,174,0.0,2.0,74,0.00,,,0.05,,2013-07-22 17:32:00,
2013-07-22 13:43:00,78.0,69.0,29.98,South,172,0.0,2.0,75,0.00,,,0.05,,2013-07-22 17:43:00,
2013-07-22 13:52:00,78.0,69.0,29.98,South,172,0.0,2.0,75,0.00,,,0.05,,2013-07-22 17:52:00,
2013-07-22 14:05:00,78.0,70.0,29.98,SSW,207,0.0,3.0,76,0.00,,,0.05,,2013-07-22 18:05:00,
2013-07-22 14:16:00,78.0,70.0,29.97,SE,131,0.0,8.0,76,0.00,,,0.05,,2013-07-22 18:16:00,
2013-07-22 14:51:00,77.0,68.0,29.96,SSW,200,0.0,6.0,75,0.00,,,0.05,,2013-07-22 18:51:00,
2013-07-22 15:05:00,76.0,68.0,29.96,SSW,206,0.0,4.0,76,0.00,,,0.05,,2013-07-22 19:05:00,
2013-07-22 15:16:00,75.0,67.0,29.95,South,181,2.0,10.0,77,0.00,,,0.05,,2013-07-22 19:16:00,
2013-07-22 15:36:00,75.0,68.0,29.95,SE,132,4.0,9.0,80,0.00,,,0.05,,2013-07-22 19:36:00,
2013-07-22 15:55:00,74.0,68.0,29.95,NE,37,0.0,5.0,83,0.00,,,0.05,,2013-07-22 19:55:00,
2013-07-22 16:04:00,74.0,68.0,29.95,NE,37,0.0,5.0,83,0.00,,,0.05,,2013-07-22 20:04:00,
2013-07-22 16:32:00,78.0,69.0,29.93,SSW,198,3.0,10.0,74,0.00,,,0.05,,2013-07-22 20:32:00,
2013-07-22 17:01:00,80.0,71.0,29.92,SSE,157,0.0,4.0,74,0.00,,,0.05,,2013-07-22 21:01:00,
2013-07-22 17:22:00,78.0,67.0,29.91,South,186,1.0,8.0,70,0.00,,,0.05,,2013-07-22 21:22:00,
2013-07-22 17:32:00,78.0,69.0,29.90,NNE,23,0.0,3.0,74,0.00,,,0.05,,2013-07-22 21:32:00,
2013-07-22 17:43:00,78.0,68.0,29.90,ESE,121,2.0,6.0,72,0.00,,,0.05,,2013-07-22 21:43:00,
2013-07-22 18:01:00,78.0,69.0,29.90,SW,216,0.0,4.0,73,0.00,,,0.05,,2013-07-22 22:01:00,
2013-07-22 18:11:00,77.0,68.0,29.91,WSW,243,2.0,6.0,73,0.00,,,0.05,,2013-07-22 22:11:00,
2013-07-22 18:22:00,77.0,68.0,29.91,WSW,243,2.0,6.0,73,0.00,,,0.05,,2013-07-22 22:22:00,
2013-07-22 18:32:00,76.0,67.0,29.89,South,182,0.0,4.0,75,0.00,,,0.00,,2013-07-22 22:32:00,
2013-07-22 18:43:00,75.0,67.0,29.89,SSW,212,0.0,2.0,75,0.00,,,0.00,,2013-07-22 22:43:00,
2013-07-22 18:52:00,75.0,67.0,29.89,SSW,212,0.0,2.0,75,0.00,,,0.00,,2013-07-22 22:52:00,
2013-07-22 19:01:00,75.0,67.0,29.89,South,190,0.0,3.0,77,0.00,,,0.00,,2013-07-22 23:01:00,
2013-07-22 19:11:00,74.0,67.0,29.89,NW,314,2.0,5.0,80,0.01,,,0.01,,2013-07-22 23:11:00,
2013-07-22 19:22:00,73.0,68.0,29.90,SSE,167,2.0,11.0,83,0.01,,,0.01,,2013-07-22 23:22:00,
2013-07-22 19:32:00,73.0,68.0,29.90,SSE,167,2.0,11.0,83,0.01,,,0.01,,2013-07-22 23:32:00,
2013-07-22 19:43:00,73.0,68.0,29.89,SSE,156,1.0,9.0,85,0.01,,,0.01,,2013-07-22 23:43:00,
2013-07-22 19:52:00,72.0,68.0,29.90,South,185,1.0,7.0,86,0.01,,,0.01,,2013-07-22 23:52:00,
2013-07-22 20:01:00,72.0,68.0,29.90,South,185,1.0,7.0,86,0.01,,,0.01,,2013-07-23 00:01:00,
2013-07-22 20:12:00,72.0,68.0,29.89,SSE,160,0.0,6.0,87,0.00,,,0.01,,2013-07-23 00:12:00,
2013-07-22 20:32:00,71.0,67.0,29.90,SSW,192,1.0,5.0,87,0.00,,,0.01,,2013-07-23 00:32:00,
2013-07-22 20:43:00,71.0,68.0,29.90,SE,141,2.0,9.0,89,0.02,,,0.03,,2013-07-23 00:43:00,
2013-07-22 20:52:00,71.0,68.0,29.90,SE,141,2.0,9.0,89,0.02,,,0.03,,2013-07-23 00:52:00,
2013-07-22 21:01:00,70.0,67.0,29.91,NNE,29,0.0,6.0,90,0.02,,,0.03,,2013-07-23 01:01:00,
2013-07-22 21:11:00,70.0,67.0,29.92,ENE,68,0.0,3.0,91,0.02,,,0.03,,2013-07-23 01:11:00,
2013-07-22 21:32:00,69.0,66.0,29.92,ENE,61,2.0,5.0,91,0.02,,,0.03,,2013-07-23 01:32:00,
2013-07-22 21:43:00,68.0,66.0,29.93,SE,134,0.0,3.0,92,0.00,,,0.03,,2013-07-23 01:43:00,
2013-07-22 22:02:00,68.0,65.0,29.93,SW,223,0.0,5.0,91,0.00,,,0.03,,2013-07-23 02:02:00,
2013-07-22 22:11:00,68.0,65.0,29.93,South,176,0.0,3.0,90,0.00,,,0.03,,2013-07-23 02:11:00,
2013-07-22 22:33:00,67.0,64.0,29.94,SE,124,0.0,6.0,89,0.00,,,0.03,,2013-07-23 02:33:00,
2013-07-22 23:02:00,67.0,64.0,29.94,NE,34,0.0,10.0,91,0.00,,,0.03,,2013-07-23 03:02:00,
2013-07-22 23:22:00,67.0,64.0,29.94,North,359,3.0,6.0,91,0.00,,,0.03,,2013-07-23 03:22:00,
2013-07-22 23:33:00,67.0,65.0,29.94,NE,39,0.0,3.0,92,0.00,,,0.03,,2013-07-23 03:33:00,
2013-07-22 23:43:00,66.0,64.0,29.94,SE,143,0.0,2.0,92,0.00,,,0.03,,2013-07-23 03:43:00,
2013-07-22 23:52:00,66.0,64.0,29.94,SE,143,0.0,2.0,92,0.00,,,0.03,,2013-07-23 03:52:00,